User: anonymous   Login
Location: Oshawa
(43.9000°N, 78.8670°W)
Time: 21:02:04
(UTC-05:00)
Language:

S-56A Canister/Altair - Orbit

View from above orbital plane
View from above orbital plane
View from above satellite
View from above satellite

Ground track
Ground track

The orbit data is extracted from the following two-line orbital elements,

1    82U 61004B   16037.91686835 +.00000047 +00000-0 +74580-4 0  9993
2    82 038.8605 333.2472 1168518 319.5450 032.3800 12.25737447612369
Epoch (UTC): 06 February 2016 22:00:17
Eccentricity: 0.1168518
inclination: 38.8605°
perigee height: 639 km
apogee height: 2496 km
right ascension of ascending node: 333.2472°
argument of perigee: 319.5450°
revolutions per day: 12.25737447
mean anomaly at epoch: 32.3800°
orbit number at epoch: 61236

The dashed part of the orbit path shows where the satellite is in the earth's shadow,  

DLR